Regional Weather Roundup
Issued by NWS

Home | Current Version | Previous Version | Graphics & Text | Print | Product List | Glossary Off
Versions: 1 2 3 4 5 6 7 8 9 10 11 12 13 14 15 16 17 18 19 20 21 22 23 24 25 26 27 28 29 30 31 32 33 34 35 36 37 38 39 40 41 42 43 44 45 46 47 48 49 50

000
ASUS43 KMKX 241121
RWRWI

WISCONSIN REGIONAL WEATHER ROUNDUP
NATIONAL WEATHER SERVICE MILWAUKEE/SULLIVAN WI
600 AM CDT THU APR 24 2014

NOTE: "FAIR" INDICATES FEW OR NO CLOUDS BELOW 12,000 FEET WITH NO
SIGNIFICANT WEATHER AND/OR OBSTRUCTIONS TO VISIBILITY.

WIZ001-002-006>008-014>016-023>028-241200-
NORTHWEST WISCONSIN

CITY           SKY/WX    TMP DP  RH WIND       PRES   REMARKS
SUPERIOR ARPT  CLOUDY    34  34  99 E6        29.97F FOG     WCI  29
ASHLAND        CLOUDY    36  35  96 E5        30.01F WCI  32
HAYWARD        CLOUDY    35  31  85 SE9G20    29.96F WCI  28
SIREN          LGT RAIN  38  37  94 SE12G17   29.90F WCI  31
RICE LAKE      LGT RAIN  37  35  94 E12       29.94S WCI  29
LADYSMITH      CLOUDY    36  31  83 E10       29.99F WCI  28
EAU CLAIRE     LGT RAIN  38  36  92 E12G21    29.92S WCI  30
MENOMONIE      LGT RAIN  38  36  92 E13       29.91S WCI  30
NEW RICHMOND   RAIN      39  38  99 E14G23    29.86F WCI  30
OSCEOLA        LGT SNOW  40  39  97 E15       29.88F WCI  32
$$

WIZ003>005-009-010-017-018-241200-
NORTH CENTRAL WISCONSIN

CITY           SKY/WX    TMP DP  RH WIND       PRES   REMARKS
WOODRUFF       FLURRIES  37  34  90 SE12      30.01F WCI  29
RHINELANDER    CLOUDY    33  31  92 E10       30.01F WCI  25
EAGLE RIVER    LGT SNOW  33  32  96 SE6       30.02F WCI  28
LAND O LAKES   FLURRIES  38  25  61 S9        30.03F WCI  31
PHILLIPS       CLOUDY    33  31  94 E7        29.99F WCI  27
TOMAHAWK       CLOUDY    33  31  94 CALM      30.00F
MEDFORD        CLOUDY    37  18  46 E13G20    29.97S WCI  28
MERRILL        CLOUDY    36  27  67 E5        30.00F WCI  32
$$

WIZ029-030-035-036-043>047-241200-
CENTRAL WISCONSIN

CITY           SKY/WX    TMP DP  RH WIND       PRES   REMARKS
WAUSAU         CLOUDY    39  18  42 E8        29.99F WCI  33
MOSINEE        CLOUDY    37  16  41 SE10      30.01F WCI  30
MARSHFIELD     CLOUDY    36  31  82 SE13      29.98F WCI  27
STEVENS POINT  LGT RAIN  34  26  73 E8        30.01F WCI  27
WAUPACA        LGT RAIN  39  30  70 E6        30.03F WCI  35
WAUTOMA        CLOUDY    36  33  88 E5        30.02F WCI  32
WISC RAPIDS    LGT RAIN  34  32  92 E7        30.01F WCI  28
CAMP DOUGLAS   LGT RAIN  36  36 100 E15       29.95F WCI  27
$$

WIZ011>013-019>022-031-037>040-048>050-241200-
NORTHEAST WISCONSIN

CITY           SKY/WX    TMP DP  RH WIND       PRES   REMARKS
ANTIGO         CLOUDY    37  18  46 SE8       30.02S WCI  30
STURGEON BAY   CLOUDY    37  21  52 E5        30.09S WCI  34
GREEN BAY      CLOUDY    41  25  53 SE5       30.06F
MANITOWOC      CLOUDY    39  28  64 SE5       30.08F
APPLETON       CLOUDY    39  23  52 SE7       30.05S WCI  34
CLINTONVILLE   CLOUDY    39  23  52 E6        30.04F WCI  35
OSHKOSH        CLOUDY    41  29  62 E9        30.02F
$$

WIZ032>034-041-042-053>061-241200-
SOUTHWEST WISCONSIN

CITY           SKY/WX    TMP DP  RH WIND       PRES   REMARKS
LA CROSSE      RAIN      40  38  93 S9        29.90S WCI  34
SPARTA         LGT RAIN  37  36  94 E12G17    29.92F WCI  30
VIROQUA        CLOUDY    36  36  99 E21G26    29.87F WCI  25
BOSCOBEL       LGT RAIN  40  35  83 VRB5      29.91F
PRAIRIE DU CHI DRIZZLE   41  35  78 E12G18    29.86F
PLATTEVILLE    CLOUDY    40  33  76 E21G26    29.89F WCI  30
$$

WIZ056-057-062-063-064-067-068-241200-
SOUTH CENTRAL WISCONSIN

CITY           SKY/WX    TMP DP  RH WIND       PRES   REMARKS
BARABOO/DELLS  CLOUDY    35  32  90 E10       29.96F WCI  27
LONE ROCK      CLOUDY    38  34  85 E13       29.94F WCI  30
WATERTOWN      CLOUDY    37  33  89 E9        30.01F WCI  30
MADISON        LGT RAIN  38  33  82 E14       29.98F WCI  30
MIDDLETON      CLOUDY    39  34  81 E12G17    29.96F WCI  32
MONROE         CLOUDY    39  38  94 E15G21    29.93F WCI  31
JANESVILLE     CLOUDY    39  32  75 E14       29.98F WCI  31
$$

WIZ051-052-058>065-066-070>072-241200-
SOUTHEAST WISCONSIN

CITY           SKY/WX    TMP DP  RH WIND       PRES   REMARKS
MILWAUKEE      LGT RAIN  37  31  78 NE7       30.06F WCI  32
WAUKESHA       LGT RAIN  34  30  86 E9        30.04F WCI  26
MILWAUKEE/TIMM RAIN      36  32  87 E5        30.05F WCI  32
RACINE         FLURRIES  38  35  89 E5        30.07F WCI  34
BURLINGTON     CLOUDY    37  32  84 E9        30.02F WCI  30
KENOSHA        CLOUDY    39  34  82 E7        30.05F WCI  34
FOND DU LAC    LGT RAIN  40  32  73 E5        30.02F
SHEBOYGAN      CLOUDY    39  28  64 E3        30.06F
WEST BEND      RAIN      34  32  93 E7        30.04F WCI  28
JUNEAU         DRIZZLE   37  32  84 E7        30.03S WCI  31
$$

LSZ147-162-241200-
LAKE SUPERIOR

STATION/POSITION TIME  TEMP    WIND        PRES    WAVE
                       AIR SEA DIR/SP/G            HT/PER
                 (UTC) (F)     (DEG/KT/KT) (MB)    (FT/S)
DEVILS ISLAND    1100   36     120/  5/  6 1017.7F
PORT WING        1000   37      60/  4/  6 1015.9
SAXON HARBOR     1000          160/  2/  7 1016.9
$$

LMZ867-665-643>646-241200-
LAKE MICHIGAN

STATION/POSITION TIME  TEMP    WIND        PRES    WAVE
                       AIR SEA DIR/SP/G            HT/PER
                 (UTC) (F)     (DEG/KT/KT) (MB)    (FT/S)
NORTHPORT PIER   1000   35     120/  6/  7 1020.0F
SISTER BAY       1053   37     110/ 10/ 16   N/A
KEWAUNEE LAKESHO 1000   38      50/  4/  4 1019.8F
SHEBOYGAN LAKESH 1100   42     110/  3/  4 1018.9F
PORT WASHINGTON  1000   41      10/  3/  5 1019.3F
MILWAUKEE LAKESH 1100   36      50/ 11/ 12   N/A
KENOSHA   LAKESH 1100   39      50/  6/  9   N/A
$$

TC  - TEMPERATURE IN CELSIUS
VSB - VISIBILITY IN STATUTE MILES
WCI - WIND CHILL INDEX
HX  - HEAT INDEX




USA.gov is the U.S. government's official web portal to all federal, state and local government web resources and services.